« Back
NWS Peachtree City, Ga » Text Product » GA Regional Weather Roundup


Printer-friendly Version
Current Version              Previous Versions:   1  2  3  4  5  6  7  8  9  

Regional Weather Roundup

188
ASUS42 KFFC 241703
RWRGA
WEATHER ROUNDUP FOR GEORGIA
NATIONAL WEATHER SERVICE PEACHTREE CITY GA
100 PM EDT FRI OCT 24 2014

NOTE: "FAIR" INDICATES FEW OR NO CLOUDS BELOW 12,000 FEET WITH NO
SIGNIFICANT WEATHER AND/OR OBSTRUCTIONS TO VISIBILITY.

* = USE WITH CAUTION. THE STATIONS MARKED WITH AN ASTERISK MAY NOT
REPORT WEATHER SUCH AS PRECIPITATION, FOG, OR THUNDER AND ARE NOT
QUALITY CONTROLLED BY NWS.

THE REMARK "TC" DENOTES TEMPERATURE READING IN DEGREES CELSIUS.

GAZ001>058-241800-
NORTH GEORGIA

CITY           SKY/WX    TMP DP  RH WIND       PRES   REMARKS
ATLANTA        PTSUNNY   68  47  46 W8        30.07S
ATHENS         MOSUNNY   69  43  38 CALM      30.06F
CHAMBLEE       SUNNY     68  45  43 W6        30.07S
PEACHTREE CITY SUNNY     69  45  41 VRB3      30.07F
ROME           SUNNY     68  46  45 VRB5      30.07
WEST ATLANTA   SUNNY     66  48  52 CALM      30.07S
GAINESVILLE    SUNNY     65  43  44 CALM      30.08F
CARTERSVILLE   SUNNY     65  45  48 CALM      30.08F


CITY           SKY/WX    TMP DP  RH WIND       PRES   REMARKS
DALTON*        SUNNY     63  46  55 N6        30.09F
LAWRENCEVILLE* SUNNY     68  37  32 CALM      30.05F
MARIETTA       MOSUNNY   67  49  51 VRB2      30.07F
KENNESAW*      MOSUNNY   64  45  48 CALM      30.10S
$$

GAZ059>098-102>109-241800-
CENTRAL GEORGIA

CITY           SKY/WX    TMP DP  RH WIND       PRES   REMARKS
AUGUSTA-BUSH   SUNNY     70  45  40 CALM      30.06F
AUGUSTA-DANIEL SUNNY     70  45  40 NW3       30.06F
COLUMBUS       PTSUNNY   65  45  48 VRB3      30.06F
MACON          SUNNY     71  43  36 SE7       30.04F
ROBINS AFB     SUNNY     71  46  40 SE3       30.05F


CITY           SKY/WX    TMP DP  RH WIND       PRES   REMARKS
LAGRANGE*      PTSUNNY   68  49  51 CALM      30.07F
SYLVANIA*      SUNNY     74  55  50 CALM      30.06F
MILLEDGEVILLE* SUNNY     68  50  52 CALM      30.06F
$$

GAZ099>101-110>166-241800-
SOUTH GEORGIA

CITY           SKY/WX    TMP DP  RH WIND       PRES   REMARKS
SAVANNAH       MOSUNNY   75  43  31 NE5       30.06F
VALDOSTA       MOSUNNY   72  42  34 CALM      30.04F
ALMA           SUNNY     72  44  36 VRB5      30.04F
ST SIMONS      MOSUNNY   70  48  45 E8        30.05F
ALBANY         SUNNY     72  44  36 VRB3      30.06F
HUNTER AFB     SUNNY     71  46  40 E6        30.03F
MOODY AFB      SUNNY     72  45  37 VRB5      30.04F
BRUNSWICK      MOSUNNY   72  45  37 CALM      30.06F


CITY           SKY/WX    TMP DP  RH WIND       PRES   REMARKS
BAINBRIDGE*    SUNNY     75  46  35 W3        30.04F
MOULTRIE*      SUNNY     72  46  40 CALM      30.05F
VIDALIA*       SUNNY     70  45  40 CALM      30.06F
WAYCROSS*      SUNNY     74  47  38 NE5       30.05F
DOUGLAS*       SUNNY     72  43  35 CALM      30.06F
$$



USA.gov is the U.S. government's official web portal to all federal, state and local government web resources and services.